User: anonymous   Login
Location: Ash Swamp
(41.5170°N, 74.6157°W)
Time: 23:20:24
(UTC+00:00)
Language:

Atlas Centaur 2 - Orbit

View from above orbital plane
View from above orbital plane
View from above satellite
View from above satellite

Ground track
Ground track

The orbit data is extracted from the following two-line orbital elements,

1   694U 63047A   20272.53576325 +.00000319 +00000-0 +29653-4 0  9990
2   694 030.3582 043.2203 0585667 001.8122 358.4449 14.02643975851582
Epoch (UTC): 28 September 2020 12:51:29
Eccentricity: 0.0585667
inclination: 30.3582°
perigee height: 459 km
apogee height: 1310 km
right ascension of ascending node: 43.2203°
argument of perigee: 1.8122°
revolutions per day: 14.02643975
mean anomaly at epoch: 358.4449°
orbit number at epoch: 85158

The dashed part of the orbit path shows where the satellite is in the earth's shadow,  

DLR